TimeCST,TemperatureF,Dew PointF,Humidity,Sea Level PressureIn,VisibilityMPH,Wind Direction,Wind SpeedMPH,Gust SpeedMPH,PrecipitationIn,Events,Conditions,WindDirDegrees,DateUTC
12:56 AM,21.0,1.0,42,30.54,10.0,North,10.4,-,N/A,,Clear,10,2014-01-07 06:56:00
1:56 AM,19.9,-0.9,40,30.55,10.0,North,13.8,19.6,N/A,,Clear,10,2014-01-07 07:56:00
2:56 AM,19.0,-0.9,42,30.55,10.0,NNE,5.8,-,N/A,,Clear,30,2014-01-07 08:56:00
3:56 AM,19.0,-0.9,42,30.54,-9999.0,NNE,11.5,-,N/A,,Clear,20,2014-01-07 09:56:00
4:56 AM,18.0,-0.9,44,30.56,-9999.0,North,5.8,-,N/A,,Clear,10,2014-01-07 10:56:00
5:56 AM,17.1,-0.0,47,30.58,-9999.0,North,5.8,-,N/A,,Clear,350,2014-01-07 11:56:00
6:56 AM,16.0,-0.0,49,30.62,-9999.0,North,6.9,-,N/A,,Clear,350,2014-01-07 12:56:00
7:56 AM,18.0,1.0,48,30.63,-9999.0,North,6.9,-,N/A,,Clear,360,2014-01-07 13:56:00
8:56 AM,19.9,-0.9,40,30.64,-9999.0,NNE,8.1,-,N/A,,Clear,20,2014-01-07 14:56:00
9:56 AM,23.0,-2.0,34,30.63,-9999.0,NE,10.4,-,N/A,,Clear,50,2014-01-07 15:56:00
10:56 AM,24.1,-2.0,32,30.61,-9999.0,Variable,6.9,-,N/A,,Clear,0,2014-01-07 16:56:00
11:56 AM,26.1,-0.9,31,30.57,-9999.0,North,6.9,-,N/A,,Clear,10,2014-01-07 17:56:00
12:56 PM,30.0,-0.0,28,30.53,10.0,Variable,5.8,-,N/A,,Clear,0,2014-01-07 18:56:00
1:56 PM,30.9,-0.0,27,30.52,10.0,North,10.4,-,N/A,,Clear,360,2014-01-07 19:56:00
2:56 PM,30.9,-0.0,27,30.53,10.0,Calm,Calm,-,N/A,,Clear,0,2014-01-07 20:56:00
3:56 PM,30.9,-0.0,27,30.54,10.0,North,8.1,-,N/A,,Clear,350,2014-01-07 21:56:00
4:56 PM,30.0,1.0,29,30.55,10.0,NNE,4.6,-,N/A,,Clear,30,2014-01-07 22:56:00
5:56 PM,28.0,1.9,33,30.56,10.0,Calm,Calm,-,N/A,,Clear,0,2014-01-07 23:56:00
6:56 PM,27.0,5.0,39,30.55,10.0,ENE,3.5,-,N/A,,Clear,70,2014-01-08 00:56:00
7:56 PM,25.0,5.0,43,30.56,10.0,Calm,Calm,-,N/A,,Clear,0,2014-01-08 01:56:00
8:56 PM,23.0,8.1,53,30.55,10.0,Calm,Calm,-,N/A,,Clear,0,2014-01-08 02:56:00
9:56 PM,21.9,10.0,60,30.54,10.0,ESE,3.5,-,N/A,,Clear,110,2014-01-08 03:56:00
10:56 PM,23.0,7.0,50,30.51,10.0,ENE,3.5,-,N/A,,Clear,60,2014-01-08 04:56:00
11:56 PM,21.0,10.0,63,30.51,10.0,Calm,Calm,-,N/A,,Clear,0,2014-01-08 05:56:00